Location: *
(46.2142°N, 4.9128°E)
Time: 14:23:24
(UTC+00:00)

Daily predictions for brighter satellites

Satellite Brightness Start Highest point End
(mag) Time Altitude Azimuth Time Altitude Azimuth Time Altitude Azimuth
ADEOS Rocket 3.2 18:25:09 10° NNE 18:32:02 89° E 18:38:07 10° SSW
USA 234 4.0 18:26:56 10° ENE 18:32:39 31° SE 18:38:20 10° S
STARLINK-1203 3.6 18:30:07 10° SW 18:34:03 63° SE 18:37:59 10° ENE
STARLINK-1093 3.0 18:31:45 10° WNW 18:34:55 79° SW 18:38:04 10° SE
H-2A R/B 2.5 18:30:13 10° SE 18:35:13 43° ENE 18:40:06 10° N
STARLINK-1074 3.0 18:32:13 10° WNW 18:35:22 78° SW 18:38:31 10° SE
STARLINK-1087 3.0 18:32:42 10° WNW 18:35:49 77° SW 18:38:56 10° SE
HJ-1C 3.3 18:32:54 10° SSE 18:36:13 67° ENE 18:39:34 10° N
STARLINK-1088 3.0 18:33:10 10° WNW 18:36:18 77° SSW 18:39:24 10° SE
STARLINK-1115 3.0 18:33:35 10° WNW 18:36:44 76° SW 18:39:53 10° SE
SL-16 R/B 2.7 18:31:40 10° S 18:36:50 38° ESE 18:42:01 10° NE
STARLINK-1225 3.6 18:33:02 10° SW 18:37:04 62° SE 18:41:05 10° ENE
STARLINK-1076 3.0 18:34:02 10° WNW 18:37:11 75° SSW 18:40:20 10° SE
STARLINK-1092 3.0 18:34:29 10° WNW 18:37:38 75° SW 18:40:46 10° SE
CSL-04 Rocket 4.0 18:32:25 10° S 18:37:42 70° WSW 18:43:00 10° NNW
STARLINK-1080 3.0 18:34:58 10° WNW 18:38:05 74° SSW 18:41:11 10° SE
STARLINK-1090 3.0 18:35:25 10° WNW 18:38:32 73° SSW 18:41:39 10° SE
STARLINK-1072 3.6 18:34:44 10° WNW 18:38:47 77° NNE 18:42:48 10° ESE
STARLINK-1089 3.0 18:35:52 10° WNW 18:38:58 73° SSW 18:42:04 10° SE
Cosmos 2333 Rocket 4.1 18:33:59 10° WSW 18:39:07 34° NW 18:44:16 10° NNE
STARLINK-1107 3.0 18:36:19 10° WNW 18:39:26 72° SW 18:42:32 10° SE
STARLINK-1230 3.6 18:37:45 10° SW 18:41:48 67° SE 18:45:51 10° ENE
Resurs 01 Rocket 3.5 18:39:43 10° E 18:41:55 14° ENE 18:44:07 10° NNE
STARLINK-1096 3.6 18:39:05 10° WNW 18:43:08 81° NNE 18:47:10 10° ESE
STARLINK-1233 3.1 18:41:20 10° WSW 18:44:27 71° NNW 18:47:36 10° ENE
STARLINK-1212 3.1 18:41:49 10° WSW 18:44:55 70° NNW 18:48:03 10° ENE
STARLINK-1105 3.1 18:42:15 10° WSW 18:45:22 70° NNW 18:48:31 10° ENE
FREGAT/IRIS 3.1 18:43:21 10° SE 18:45:50 32° ENE 18:48:19 10° N
STARLINK-1206 3.1 18:42:45 10° WSW 18:45:51 69° NNW 18:48:58 10° ENE
STARLINK-1247 3.2 18:43:11 10° WSW 18:46:17 68° NNW 18:49:24 10° NE
STARLINK-1243 3.5 18:42:33 10° SW 18:46:36 72° SE 18:50:40 10° ENE
STARLINK-1227 3.2 18:43:36 10° WSW 18:46:43 68° NNW 18:49:51 10° NE
STARLINK-1218 3.2 18:44:05 10° WSW 18:47:11 67° NNW 18:50:18 10° NE
Abrixas rocket 3.8 18:45:35 10° S 18:47:29 16° SE 18:49:06 11° ESE
Cosmos 1302 Rocket 4.4 18:42:28 10° NNW 18:47:34 46° ENE 18:52:38 10° SE
STARLINK-1226 3.2 18:44:32 10° WSW 18:47:38 67° NNW 18:50:46 10° NE
STARLINK-1254 3.2 18:44:58 10° WSW 18:48:04 66° NNW 18:51:12 10° NE
STARLINK-1079 3.5 18:44:08 10° WNW 18:48:11 87° NNE 18:52:10 10° ESE
STARLINK-1215 3.2 18:45:27 10° WSW 18:48:32 66° NNW 18:51:39 10° NE
STARLINK-1231 3.2 18:45:53 10° WSW 18:48:59 65° NNW 18:52:05 10° NE
STARLINK-1232 3.3 18:46:48 10° WSW 18:49:54 64° NNW 18:53:00 10° NE
Cosmos 1953 4.0 18:48:04 10° ESE 18:50:16 15° E 18:52:28 10° NE
Cosmos 304 Rocket 3.8 18:45:30 10° NNW 18:50:19 88° ENE 18:55:06 10° SSE
STARLINK-1217 3.3 18:47:15 10° WSW 18:50:21 64° NNW 18:53:28 10° NE
STARLINK-1208 3.3 18:47:40 10° WSW 18:50:46 64° NNW 18:53:54 10° NE
Cosmos 1709 Rocket 4.1 18:44:49 10° N 18:50:54 54° ENE 18:56:54 10° SSE
STARLINK-1229 3.3 18:48:09 10° WSW 18:51:14 63° NNW 18:54:21 10° NE
STARLINK-1236 3.5 18:47:18 10° SW 18:51:22 78° SSE 18:55:28 10° ENE
SeaSat 1 3.8 18:46:47 10° NNE 18:51:27 43° NW 18:56:06 10° SW
STARLINK-1271 3.3 18:48:36 10° WSW 18:51:41 62° NNW 18:54:48 10° NE
STARLINK-1270 3.3 18:49:04 10° WSW 18:52:09 62° NNW 18:55:15 10° NE
STARLINK-1154 3.3 18:49:31 10° WSW 18:52:36 61° NNW 18:55:43 10° NE
STARLINK-1116 3.6 18:48:33 10° WNW 18:52:37 88° SSW 18:56:26 11° ESE
STARLINK-1197 3.4 18:50:26 10° WSW 18:53:31 60° NNW 18:56:37 10° NE
Cosmos 1269 Rocket 4.0 18:48:31 10° S 18:53:43 61° ESE 18:58:57 10° NNE
STARLINK-1101 4.5 18:49:53 10° NW 18:53:49 40° NNE 18:57:32 11° E
STARLINK-1189 3.4 18:50:53 10° WSW 18:53:58 60° NNW 18:57:04 10° NE
MONITOR-E 4.3 18:51:51 10° SE 18:54:20 38° ENE 18:56:50 10° N
STARLINK-1187 3.6 18:51:45 10° WSW 18:54:50 54° NNW 18:57:56 10° NE
STARLINK-1188 3.4 18:51:47 10° WSW 18:54:52 59° NNW 18:57:58 10° NE
STARLINK-1198 3.4 18:51:48 10° WSW 18:54:52 59° NNW 18:57:58 10° NE
STARLINK-1235 3.8 18:52:29 10° W 18:55:33 49° NNW 18:58:37 10° NE
CZ-4C R/B 4.5 18:51:29 10° WNW 18:55:49 22° NNW 19:00:45 10° NNE
STARLINK-1199 3.5 18:53:43 10° WSW 18:56:49 58° NNW 18:59:56 10° NE
STARLINK-1191 3.5 18:54:11 10° WSW 18:57:16 57° NNW 19:00:23 10° NE
STARLINK-1210 3.5 18:54:39 10° WSW 18:57:44 57° NNW 19:00:51 10° NE
STARLINK-1221 3.5 18:55:05 10° WSW 18:58:11 56° NNW 19:01:18 10° NE
STARLINK-1219 3.5 18:55:33 10° WSW 18:58:38 56° NNW 19:01:45 10° NE
STARLINK-1102 4.4 18:54:52 10° NW 18:58:49 42° NNE 19:02:19 13° E
STARLINK-1222 3.5 18:56:00 10° WSW 18:59:05 55° NNW 19:02:11 10° NE
STARLINK-1211 3.5 18:56:27 10° WSW 18:59:32 55° NNW 19:02:38 10° NE
ISS -2.6 18:56:45 10° WNW 18:59:53 35° N 19:02:41 12° ENE
STARLINK-1214 3.5 18:56:54 10° WSW 18:59:59 55° NNW 19:03:05 10° NE
STARLINK-1245 3.5 18:57:23 10° WSW 19:00:27 54° NNW 19:03:31 10° NE
STARLINK-1238 3.6 18:57:46 10° WSW 19:00:51 54° NNW 19:03:57 10° NE
STARLINK-1269 3.5 18:57:07 10° WSW 19:01:12 89° SSE 19:05:18 10° ENE
Cosmos 1455 Rocket 3.0 18:57:14 10° S 19:01:34 86° E 19:05:58 10° N
STARLINK-1205 3.6 18:58:42 10° WSW 19:01:46 53° NNW 19:04:50 10° NE
STARLINK-1094 3.6 18:57:49 10° WNW 19:01:53 78° SSW 19:05:21 14° SE
Cosmos 2297 3.7 18:56:18 10° NNW 19:02:00 76° ENE 19:07:42 10° SSE
STARLINK-1204 3.6 18:59:11 10° WSW 19:02:15 53° NNW 19:05:19 10° NE
STARLINK-1111 4.4 18:59:51 10° NW 19:03:50 43° NNE 19:07:06 14° E
S3M 4.3 18:59:08 10° SSW 19:05:30 74° W 19:11:56 10° N
STARLINK-1200 3.6 19:01:56 10° WSW 19:06:01 86° NNW 19:10:07 10° ENE
Cosmos 2237 Rocket 3.1 19:00:49 10° SW 19:06:17 53° WNW 19:11:49 10° NNE
STARLINK-1117 3.7 19:02:40 10° WNW 19:06:43 72° SSW 19:10:00 15° SE
STARLINK-1073 4.3 19:04:50 10° NW 19:08:51 45° NNE 19:11:53 16° E
Cosmos 1892 Rocket 4.4 19:04:33 10° NNW 19:08:56 54° W 19:13:18 10° S
CZ-2C R/B 3.6 19:05:12 10° NE 19:09:24 24° E 19:13:34 10° SSE
Cosmos 1626 Rocket 3.7 19:05:27 10° N 19:09:47 54° ENE 19:14:03 10° SSE
STARLINK-1192 3.6 19:06:41 10° WSW 19:10:46 81° NNW 19:14:52 10° ENE
STARLINK-1078 3.8 19:07:07 10° WNW 19:11:09 67° SW 19:14:17 16° SE
BREEZE-M DEB (TANK) 4.4 19:01:16 10° WNW 19:12:26 43° SW 19:15:43 10° SSE
Cosmos 2278 Rocket 4.2 19:07:55 10° NW 19:12:43 29° WSW 19:17:30 10° SSW
STARLINK-1121 4.2 19:09:48 10° NW 19:13:50 47° NNE 19:16:39 18° E
ARGOS 3.1 19:10:09 10° SSE 19:15:33 80° ENE 19:20:59 10° NNW
STARLINK-1244 3.7 19:11:37 10° WSW 19:15:42 76° NNW 19:19:47 10° ENE
STARLINK-1108 3.9 19:12:00 10° WNW 19:16:01 62° SW 19:18:58 17° SE
Cosmos 1602 Rocket 3.8 19:13:25 10° N 19:17:48 51° ENE 19:21:45 12° SSE
STARLINK-1106 4.1 19:14:46 10° NW 19:18:48 50° NNE 19:21:25 20° E
STARLINK-1138 3.8 19:16:13 10° WSW 19:20:18 72° NNW 19:24:24 10° ENE
STARLINK-1071 4.0 19:16:39 10° WNW 19:20:39 58° SW 19:23:26 19° SE
STARLINK-1234 4.3 19:18:40 10° W 19:21:24 32° NNW 19:24:04 10° NE
USA 186 2.2 19:19:26 10° S 19:22:51 69° WSW 19:26:15 10° NNW
STARLINK-1112 4.1 19:19:46 10° NW 19:23:50 52° NNE 19:26:14 22° E
MOS 1 Rocket 4.2 19:19:06 10° NNE 19:23:52 34° E 19:28:45 10° SSE
Meteor 1-24 Rocket 4.4 19:19:12 10° NNW 19:24:36 55° W 19:29:47 10° S
STARLINK-1110 4.1 19:21:08 10° WNW 19:25:06 53° SW 19:27:43 20° SSE
STARLINK-1143 3.9 19:21:08 10° WSW 19:25:12 68° NNW 19:29:16 10° ENE
MetOp-A 4.2 19:21:25 12° SSE 19:26:17 57° ENE 19:31:32 10° N
STARLINK-1124 4.1 19:22:31 10° WNW 19:26:33 53° SW 19:29:13 20° SSE
CZ-2C R/B 3.1 19:22:56 10° S 19:28:00 76° WSW 19:32:52 10° NNW
STARLINK-1128 4.0 19:24:45 10° NW 19:28:50 55° NNE 19:31:01 25° E
Cosmos 1544 Rocket 4.0 19:24:49 10° SSW 19:29:10 66° W 19:33:36 10° N
Cosmos 1470 2.6 19:27:19 10° S 19:31:11 84° E 19:35:05 10° N
Cosmos 1437 4.3 19:29:40 10° NNE 19:31:25 19° NE 19:31:25 19° NE
STARLINK-1241 4.0 19:29:32 10° WSW 19:33:33 60° NNW 19:37:12 12° NE
STARLINK-1113 3.9 19:29:43 10° NW 19:33:49 58° NNE 19:35:47 28° E
STARLINK-1122 4.3 19:30:37 10° WNW 19:34:31 45° SW 19:36:48 22° SSE
SPOT 3 Rocket 3.5 19:29:48 12° SSE 19:34:43 74° ENE 19:39:56 10° N
Cosmos 1825 Rocket 4.3 19:32:47 10° N 19:36:47 32° ENE 19:37:53 29° ESE
IRIDIUM 103 4.3 19:32:28 10° N 19:37:40 61° E 19:42:00 15° SSE
STARLINK-1239 4.1 19:34:30 10° WSW 19:38:29 57° NNW 19:41:56 14° NE
STARLINK-1119 3.8 19:34:41 10° WNW 19:38:49 61° NNE 19:40:34 32° E
STARLINK-1126 4.5 19:35:37 10° WNW 19:39:28 42° SW 19:41:36 23° SSE
Cosmos 2369 Rocket 2.5 19:34:48 10° NNW 19:40:23 51° ENE 19:43:14 27° ESE
SJ-6B 3.3 19:36:55 10° S 19:40:56 63° W 19:45:02 10° NNW
H-2A R/B 4.5 19:37:25 10° WSW 19:41:29 12° SW 19:43:59 10° SSW
Cosmos 1726 2.7 19:42:56 36° E 19:42:57 36° E 19:46:25 10° NNE
STARLINK-1240 4.2 19:39:15 10° WSW 19:43:13 54° NNW 19:46:29 15° NE
STARLINK-1114 3.7 19:39:42 10° WNW 19:43:50 65° NNE 19:45:24 36° E
Ariane Rocket 4.3 19:39:17 10° SSW 19:44:02 40° W 19:48:49 10° NNW
Cosmos 1758 3.5 19:41:04 10° SSW 19:45:10 75° W 19:49:17 10° N
Aureole 2 Rocket 2.7 19:42:09 10° N 19:45:32 45° ENE 19:45:56 42° E
Cosmos 1758 Rocket 3.8 19:42:24 10° N 19:46:39 47° ENE 19:47:54 36° ESE
STARLINK-1216 4.3 19:44:01 10° W 19:47:59 52° NNW 19:51:02 16° NE
NOSS 3-3 (A) 4.2 19:42:36 10° S 19:48:01 42° ESE 19:54:01 10° NE
NOSS 3-3 (C) 4.2 19:42:44 10° S 19:48:08 41° ESE 19:54:07 10° NE
STARLINK-1130 (DARKSAT) 3.7 19:44:40 10° WNW 19:48:48 69° NNE 19:50:10 40° E
CZ-2C R/B 3.7 19:44:50 10° NNE 19:49:38 89° ESE 19:54:19 10° SSW
STARLINK-1237 4.4 19:48:50 10° W 19:52:47 49° NNW 19:55:38 17° NE
Cosmos 1953 Rocket 4.3 19:49:03 10° N 19:53:06 33° ENE 19:53:21 33° E
STARLINK-1084 3.6 19:49:37 10° WNW 19:53:47 74° NNE 19:54:56 45° E
Terra 3.9 19:53:53 12° NE 19:53:53 12° NE 19:55:36 10° NE
Cosmos 2184 Rocket 4.0 19:49:30 10° N 19:55:50 66° E 19:59:37 25° SSE
IRIDIUM 106 4.2 19:50:43 10° N 19:55:58 87° E 20:00:12 16° S
Spot 2 Rocket 4.1 19:55:41 33° E 19:56:54 39° ENE 20:01:38 10° N
STARLINK-1202 4.5 19:53:36 10° W 19:57:32 47° NNW 20:00:11 19° NE
STARLINK-1098 3.6 19:54:37 10° WNW 19:58:47 79° NNE 19:59:43 52° ESE
Cosmos 1606 Rocket 3.9 19:59:08 42° E 19:59:09 42° E 20:03:21 10° NNE
Cosmos 1943 Rocket 2.1 19:56:17 10° NNW 20:01:51 88° WSW 20:04:34 32° SSE
Meteor 1-21 Rocket 4.2 19:56:44 10° NNW 20:02:20 85° W 20:06:08 21° S
Cosmos 1943 3.5 20:01:04 29° SSE 20:03:19 42° ESE 20:08:38 10° NE
STARLINK-1123 3.5 19:59:35 10° WNW 20:03:45 84° NNE 20:04:30 59° ESE
Meteor 2-10 4.0 20:00:44 13° S 20:05:32 70° E 20:11:03 10° NNE
SL-8 R/B 3.7 20:01:23 10° WNW 20:06:10 76° NNE 20:07:35 45° E
Resurs 1-3 3.8 20:05:32 26° S 20:07:55 67° WSW 20:12:19 10° NNW
STARLINK-1097 3.5 20:04:33 10° WNW 20:08:43 89° NNE 20:09:16 66° ESE
ATLAS 2AS CENTAUR R/B 3.5 20:03:57 10° NW 20:11:17 43° NE 20:14:22 30° E
STARLINK-1099 3.4 20:09:33 10° WNW 20:13:43 86° SSW 20:14:04 74° SE
H-2A R/B 4.0 20:10:17 10° SSW 20:14:46 28° W 20:19:12 10° NW
USA 245 4.2 20:15:17 47° E 20:16:05 52° ENE 20:21:43 10° N
USA 234 3.2 20:09:32 10° NE 20:16:07 85° NNW 20:22:39 10° WSW
Cosmos 2154 Rocket 4.0 20:10:36 10° N 20:16:56 62° ENE 20:18:59 42° SE
Aureole 3 4.3 20:13:10 10° SSW 20:17:07 54° WNW 20:22:11 10° N
Resurs 01 Rocket 1.7 20:16:28 44° S 20:17:49 76° WSW 20:22:15 10° NNW
STARLINK-1104 3.5 20:14:33 10° WNW 20:18:42 80° SSW 20:18:51 78° S
DMSP B5D2-2 4.2 20:13:56 10° N 20:19:09 73° WNW 20:24:20 10° SSW
Cosmos 1328 4.0 20:16:56 10° N 20:20:25 57° NE 20:20:25 57° NE
SL-16 R/B 3.6 20:15:42 10° WSW 20:20:57 38° NW 20:26:14 10° NNE
Cosmos 2228 3.0 20:22:39 64° ENE 20:22:39 64° ENE 20:26:33 10° NNE
Abrixas rocket 4.3 20:19:47 10° WSW 20:20:46 19° WSW 20:20:46 19° WSW
Cosmos 967 Rocket 4.4 20:16:52 10° SSW 20:23:12 66° ESE 20:29:39 10° NE
STARLINK-1144 3.6 20:19:32 10° WNW 20:23:38 74° SW 20:23:38 74° SW
Cosmos 1953 3.3 20:23:07 14° SSW 20:26:14 46° WNW 20:30:06 10° N
STARLINK-1103 3.7 20:24:30 10° WNW 20:28:25 67° WSW 20:28:25 67° WSW
Cosmos 1992 Rocket 4.3 20:26:22 10° NNW 20:31:31 61° WSW 20:33:06 41° SSW
Nadezhda 1 Rocket 3.9 20:29:47 31° S 20:33:04 80° E 20:39:29 10° N
STARLINK-1101 3.9 20:29:30 10° WNW 20:33:11 59° WSW 20:33:11 59° WSW
ISS -2.2 20:33:34 10° WNW 20:35:39 35° WNW 20:35:39 35° WNW
STARLINK-1102 4.2 20:34:28 10° WNW 20:37:58 52° WSW 20:37:58 52° WSW
Cosmos 2058 Rocket 4.2 20:42:37 35° NNE 20:42:37 35° NNE 20:45:22 10° NNE
MetOp-B 4.1 20:40:10 58° S 20:41:15 80° WSW 20:46:39 10° NNW
Cosmos 1603 3.7 20:36:51 10° SSW 20:42:29 80° WNW 20:48:09 10° NNE
SPOT 5 3.9 20:44:25 30° NNE 20:44:25 30° NNE 20:47:07 10° N
Cosmos 2251 Rocket 4.2 20:38:09 10° SW 20:43:26 56° WNW 20:48:44 10° NNE
Cosmos 2084 Rocket 4.3 20:39:12 10° NW 20:43:27 43° WSW 20:43:30 43° SW
STARLINK-1111 4.4 20:39:29 10° WNW 20:42:45 46° WSW 20:42:45 46° WSW
Meteor 1-16 Rocket 4.4 20:40:19 22° SSW 20:43:44 66° WNW 20:49:12 10° N
Cosmos 1703 3.9 20:40:34 10° NNW 20:43:49 54° NW 20:43:49 54° NW
IGS 5A 4.3 20:49:02 45° N 20:49:02 45° N 20:52:01 10° N
ERS-1 Rocket 3.4 20:48:38 50° NE 20:48:38 50° NE 20:52:53 10° N
Landsat 7 3.9 20:49:39 70° NNE 20:49:39 70° NNE 20:53:57 10° NNW
CZ-2C R/B 3.5 20:44:58 10° N 20:49:56 47° WNW 20:54:51 10° SW
Cosmos 1656 Rocket 3.6 20:56:20 10° NNW 21:02:02 81° WSW 21:02:02 81° WSW
Meteor 1-11 4.4 20:58:08 10° NNW 21:03:54 69° W 21:04:29 64° SW
Aureole 1 Rocket 4.2 21:01:50 50° S 21:04:07 77° ESE 21:10:46 10° NNE
COSMOS 2455 3.4 21:09:41 10° NNW 21:15:09 47° NE 21:15:09 47° NE
Cosmos 2341 Rocket 4.0 21:16:12 10° N 21:22:34 78° W 21:22:43 77° WSW
Cosmos 2369 Rocket 3.7 21:19:23 10° NW 21:24:05 27° WSW 21:25:03 26° WSW
NOSS 3-4 (A) 3.7 21:22:56 10° NW 21:29:58 90° ENE 21:30:09 86° SE
NOSS 3-4 (C) 3.7 21:23:02 10° NW 21:30:04 89° NE 21:30:14 86° SE
Terra 3.1 21:32:46 36° N 21:32:46 36° N 21:35:36 10° NNW
Cosmos 2218 Rocket 4.3 21:43:27 10° N 21:48:36 62° NNW 21:48:36 62° NNW
USA 234 4.3 21:52:41 10° NE 21:58:43 42° NNW 22:04:45 10° W
Cosmos 2181 Rocket 4.5 22:00:17 56° NW 22:00:17 56° NW 22:05:43 10° N
ATLAS 2AS CENTAUR R/B 3.2 21:55:12 10° NW 22:01:48 55° W 22:01:48 55° W
Cosmos 1697 Rocket 4.4 22:06:50 10° N 22:10:12 25° NNE 22:10:12 25° NNE
Mayak 1.8 22:15:14 10° N 22:15:32 12° N 22:15:32 12° N
Cosmos 1980 Rocket 4.1 22:32:27 10° N 22:35:28 22° NNE 22:35:28 22° NNE
CZ-4C R/B 4.1 22:31:36 10° NNW 22:37:39 32° NNE 22:38:44 31° NE
SL-16 R/B 4.3 23:52:44 24° NE 23:52:44 24° NE 23:57:18 10° N
